Location: Newark
(57.9988°N, 22.0181°E)
Time: 18:20:00
(UTC+00:00)

N. Korean satellite - Visible Passes

Search period start: 07 December 2019 00:00
Search period end: 17 December 2019 00:00
Orbit: 456 x 506 km, 97.2° (Epoch: 06 December)

Date Brightness Start Highest point End Pass type
(mag) Time Alt. Az. Time Alt. Az. Time Alt. Az.
07 Dec 10.1 03:09:48 10° ENE 03:10:54 11° E 03:11:59 10° ESE visible
07 Dec 6.6 04:41:20 10° NNE 04:44:58 79° ESE 04:48:31 10° SSW visible
07 Dec 6.9 15:24:38 10° S 15:28:22 73° WSW 15:32:05 10° NNW visible
07 Dec 10.2 17:01:25 10° W 17:02:27 11° W 17:03:28 10° WNW visible
08 Dec 7.8 04:15:59 10° NNE 04:19:28 43° E 04:22:52 10° S visible
08 Dec 7.6 05:49:41 10° N 05:52:42 25° WNW 05:55:40 10° WSW visible
08 Dec 6.6 14:59:15 10° SSE 15:02:56 65° ENE 15:06:37 10° N visible
08 Dec 9.6 16:34:06 10° SW 16:36:43 18° W 16:39:18 10° NW visible
09 Dec 8.9 03:50:49 10° NE 03:53:52 25° E 03:56:52 10° SSE visible
09 Dec 6.9 05:24:00 10° N 05:27:25 40° WNW 05:30:45 10° SW visible
09 Dec 7.1 14:34:07 10° SE 14:37:35 38° ENE 14:41:02 10° N visible
09 Dec 8.8 16:07:47 10° SSW 16:11:03 29° W 16:14:20 10° NNW visible
10 Dec 9.7 03:25:58 10° NE 03:28:11 15° E 03:30:22 10° SE visible
10 Dec 6.4 04:58:27 10° NNE 05:02:03 71° WNW 05:05:33 10° SSW visible
10 Dec 7.7 15:41:53 10° S 15:45:30 49° W 15:49:06 10° NNW visible
11 Dec 6.9 04:33:00 10° NNE 04:36:35 65° ESE 04:40:05 10° S visible
11 Dec 7.9 06:07:04 10° NNW 06:09:38 19° WNW 06:12:09 10° WSW visible
11 Dec 6.6 15:16:17 10° SSE 15:19:59 86° WSW 15:23:42 10° NNW visible
11 Dec 10.0 16:52:16 10° WSW 16:53:59 13° W 16:55:42 10° WNW visible
12 Dec 8.1 04:07:42 10° NNE 04:11:03 36° E 04:14:19 10° SSE visible
12 Dec 7.4 05:41:15 10° N 05:44:23 29° WNW 05:47:27 10° WSW visible
12 Dec 6.7 14:50:59 10° SSE 14:54:35 54° ENE 14:58:11 10° N visible
12 Dec 9.4 16:25:26 10° SW 16:28:17 21° W 16:31:07 10° NW visible
13 Dec 9.1 03:42:36 10° NE 03:45:25 21° E 03:48:10 10° SE visible
13 Dec 6.7 05:15:37 10° N 05:19:03 47° WNW 05:22:26 10° SW visible
13 Dec 8.5 15:59:15 10° SSW 16:02:39 34° W 16:06:01 10° NNW visible
14 Dec 9.9 03:17:58 10° ENE 03:19:41 13° E 03:21:24 10° ESE visible
14 Dec 6.4 04:50:04 10° NNE 04:53:39 85° WNW 04:57:09 10° SSW visible
14 Dec 7.3 15:33:27 10° S 15:37:06 59° WSW 15:40:43 10° NNW visible
15 Dec 7.3 04:24:40 10° NNE 04:28:10 53° E 04:31:35 10° S visible
15 Dec 7.8 05:58:33 10° N 06:01:18 21° WNW 06:04:00 10° WSW visible
15 Dec 6.5 15:07:56 10° SSE 15:11:38 79° ENE 15:15:17 10° NNW visible
15 Dec 9.9 16:43:22 10° WSW 16:45:30 15° W 16:47:39 10° NW visible
16 Dec 8.5 03:59:25 10° NNE 04:02:35 30° E 04:05:42 10° SSE visible
16 Dec 7.1 05:32:48 10° N 05:36:02 33° WNW 05:39:11 10° SW visible
16 Dec 6.9 14:42:42 10° SE 14:46:14 45° ENE 14:49:44 10° N visible
16 Dec 9.1 16:16:47 10° SSW 16:19:49 24° W 16:22:50 10° NW visible
